Weather History for KMGN - November, 2012

Change the Weather History Date:

Friday, November 2, 2012

  Actual Average (KCVX) Record (KCVX)
Temperature  
Mean Temperature 36 °F -  
Max Temperature 39 °F 59 °F - (-1)
Min Temperature 33 °F 43 °F - (-1)
Degree Days  
Heating Degree Days 29    
Moisture  
Dew Point 28 °F    
Average Humidity 73    
Maximum Humidity 83    
Minimum Humidity 62    
Precipitation  
Precipitation 0.00 in - - ()
Sea Level Pressure  
Sea Level Pressure 29.94 in    
Wind  
Wind Speed 8 mph (NNW)    
Max Wind Speed 16 mph    
Max Gust Speed 24 mph    
Visibility 9 miles    
Events Rain , Snow    
Averages and records for this station are not official NWS values.
T = Trace of Precipitation, MM = Missing Value Source: NWS Daily Summary

Daily Weather History Graph

Daily Weather History Graph

Search for Another Location

Airport or City:

Trip Planner

Search our weather history database for the weather conditions in past years. The results will help you decide how hot, cold, wet, or windy it might be!

Date:

Astronomy

Nov. 02, 2012 Rise Set
Actual Time 8:21 AM EDT 6:24 PM EDT
Civil Twilight 7:50 AM EDT 6:55 PM EDT
Nautical Twilight 7:15 AM EDT 7:30 PM EDT
Astronomical Twilight 6:40 AM EDT 8:05 PM EDT
Moon 9:05 PM EDT (11/2) 11:47 AM EDT (11/2)
Length of Visible Light 11h 05m
Length of Day
10h 03m
Waning Gibbous, 87% of the Moon is Illuminated
Nov 2
Waning Gibbous
Nov 6
Last Quarter
Nov 13
New
Nov 20
First Quarter
Nov 28
Full

Hourly Weather History & Observations

Time (EDT) Temp. Windchill Dew Point Humidity Pressure Visibility Wind Dir Wind Speed Gust Speed Precip Events Conditions
12:14 AM 35.8 °F 29.4 °F 27.7 °F 72% 29.77 in 10.0 mi NNW 8.1 mph - N/A   Overcast
12:35 AM 35.8 °F 29.4 °F 27.9 °F 73% 29.78 in 10.0 mi NNW 8.1 mph - N/A   Overcast
12:54 AM 35.8 °F 30.1 °F 28.8 °F 76% 29.78 in 10.0 mi NNW 6.9 mph - N/A   Overcast
1:14 AM 35.8 °F 31.9 °F 28.2 °F 74% 29.79 in 10.0 mi NNW 4.6 mph - N/A   Overcast
1:35 AM 35.8 °F 28.8 °F 27.9 °F 73% 29.79 in 10.0 mi NNW 9.2 mph - N/A   Overcast
1:54 AM 35.8 °F 30.1 °F 27.9 °F 73% 29.79 in 10.0 mi NW 6.9 mph - N/A   Overcast
2:15 AM 35.8 °F 30.9 °F 28.0 °F 73% 29.80 in 10.0 mi NNW 5.8 mph - N/A   Overcast
2:35 AM 35.8 °F 30.1 °F 27.3 °F 71% 29.80 in 10.0 mi North 6.9 mph - N/A   Overcast
2:54 AM 35.8 °F 27.8 °F 26.6 °F 69% 29.81 in 10.0 mi NNW 11.5 mph 18.4 mph N/A   Overcast
3:15 AM 34.7 °F 28.1 °F 26.6 °F 72% 29.82 in 10.0 mi NW 8.1 mph - N/A   Overcast
3:35 AM 34.2 °F 27.5 °F 26.1 °F 72% 29.82 in 10.0 mi NNW 8.1 mph - N/A   Mostly Cloudy
3:54 AM 33.4 °F 30.4 °F 25.5 °F 73% 29.82 in 10.0 mi NW 3.5 mph - N/A   Mostly Cloudy
4:15 AM 33.3 °F 27.9 °F 26.6 °F 77% 29.83 in 7.0 mi WNW 5.8 mph - N/A Snow Light Snow
4:34 AM 33.3 °F - 26.4 °F 76% 29.84 in 10.0 mi Calm Calm - N/A   Mostly Cloudy
4:55 AM 33.3 °F - 26.2 °F 75% 29.84 in 10.0 mi Calm Calm - N/A   Overcast
5:15 AM 33.8 °F 30.8 °F 25.9 °F 73% 29.84 in 10.0 mi NNW 3.5 mph - N/A   Overcast
5:34 AM 34.0 °F 28.0 °F 26.2 °F 73% 29.85 in 5.0 mi North 6.9 mph - N/A Snow Light Snow
5:55 AM 34.2 °F 29.0 °F 26.6 °F 74% 29.86 in 10.0 mi NW 5.8 mph - N/A   Overcast
6:15 AM 33.3 °F 27.1 °F 27.9 °F 81% 29.86 in 3.0 mi NW 6.9 mph - N/A Snow Light Snow
6:34 AM 33.3 °F 30.2 °F 28.2 °F 82% 29.86 in 10.0 mi West 3.5 mph - N/A   Overcast
6:55 AM 34.7 °F 29.6 °F 27.3 °F 74% 29.87 in 10.0 mi NW 5.8 mph - N/A   Overcast
7:15 AM 35.8 °F 33.0 °F 27.5 °F 72% 29.88 in 10.0 mi NNW 3.5 mph - N/A   Overcast
7:34 AM 35.8 °F 33.0 °F 27.1 °F 71% 29.88 in 10.0 mi NW 3.5 mph 16.1 mph N/A   Overcast
7:55 AM 35.8 °F 30.1 °F 27.0 °F 70% 29.88 in 10.0 mi NNW 6.9 mph - N/A   Overcast
8:15 AM 35.8 °F 28.3 °F 27.3 °F 71% 29.89 in 10.0 mi NNW 10.4 mph 16.1 mph N/A   Overcast
8:34 AM 35.8 °F 28.8 °F 27.1 °F 71% 29.90 in 10.0 mi NW 9.2 mph - N/A   Overcast
8:55 AM 35.8 °F 30.1 °F 27.5 °F 72% 29.90 in 10.0 mi NNW 6.9 mph - N/A   Overcast
9:15 AM 35.8 °F 27.8 °F 27.0 °F 70% 29.91 in 10.0 mi NNW 11.5 mph 19.6 mph N/A   Overcast
9:34 AM 35.8 °F 28.3 °F 27.9 °F 73% 29.92 in 10.0 mi NW 10.4 mph 16.1 mph N/A   Overcast
9:55 AM 35.8 °F 27.8 °F 27.1 °F 71% 29.92 in 10.0 mi NNW 11.5 mph 18.4 mph N/A   Overcast
10:15 AM 35.8 °F 27.3 °F 25.9 °F 67% 29.93 in 10.0 mi North 12.7 mph 21.9 mph N/A   Overcast
10:34 AM 36.7 °F 28.4 °F 26.1 °F 65% 29.93 in 10.0 mi NNW 12.7 mph - N/A   Scattered Clouds
10:55 AM 37.4 °F 28.5 °F 26.6 °F 65% 29.94 in 10.0 mi NNW 15.0 mph 24.2 mph N/A   Mostly Cloudy
11:15 AM 36.7 °F 28.0 °F 26.1 °F 65% 29.94 in 10.0 mi NNW 13.8 mph 18.4 mph N/A   Overcast
11:34 AM 38.3 °F 31.9 °F 27.1 °F 64% 29.95 in 10.0 mi North 9.2 mph 23.0 mph N/A   Overcast
11:55 AM 36.5 °F 28.7 °F 26.2 °F 66% 29.96 in 10.0 mi NNW 11.5 mph 18.4 mph N/A   Overcast
12:15 PM 36.3 °F 28.0 °F 27.0 °F 69% 29.96 in 10.0 mi NW 12.7 mph 20.7 mph N/A   Overcast
12:34 PM 37.6 °F 29.6 °F 28.9 °F 71% 29.97 in 10.0 mi NW 12.7 mph 19.6 mph N/A   Overcast
12:55 PM 38.1 °F 33.7 °F 29.5 °F 71% 29.97 in 10.0 mi North 5.8 mph - N/A   Overcast
1:15 PM 38.3 °F 30.9 °F 28.8 °F 69% 29.97 in 7.0 mi North 11.5 mph 17.3 mph N/A   Overcast
1:35 PM 38.3 °F 30.5 °F 27.3 °F 65% 29.97 in 10.0 mi NNW 12.7 mph 18.4 mph N/A   Overcast
1:55 PM 38.3 °F 30.5 °F 27.9 °F 66% 29.97 in 10.0 mi WNW 12.7 mph 18.4 mph N/A   Overcast
2:14 PM 38.3 °F 31.9 °F 26.2 °F 62% 29.98 in 10.0 mi NNW 9.2 mph 17.3 mph N/A   Overcast
2:35 PM 39.6 °F 32.1 °F 28.9 °F 66% 29.98 in 10.0 mi West 12.7 mph 18.4 mph N/A   Overcast
2:55 PM 38.3 °F 29.3 °F 28.2 °F 67% 29.98 in 10.0 mi WNW 16.1 mph 24.2 mph N/A   Mostly Cloudy
3:14 PM 36.0 °F 28.0 °F 31.1 °F 82% 29.99 in 10.0 mi NNW 11.5 mph - N/A   Mostly Cloudy
3:35 PM 37.2 °F 30.0 °F 31.1 °F 79% 29.99 in 10.0 mi NW 10.4 mph 17.3 mph N/A   Mostly Cloudy
3:55 PM 38.3 °F 31.9 °F 29.3 °F 70% 30.00 in 10.0 mi NW 9.2 mph 18.4 mph N/A   Mostly Cloudy
4:14 PM 35.2 °F 32.4 °F 30.0 °F 81% 30.01 in 2.0 mi NNW 3.5 mph 16.1 mph N/A Snow Light Snow
4:35 PM 37.6 °F 30.5 °F 30.7 °F 76% 30.00 in 10.0 mi NNW 10.4 mph 17.3 mph N/A   Mostly Cloudy
4:55 PM 35.8 °F 29.4 °F 30.0 °F 80% 30.01 in 7.0 mi NNW 8.1 mph 17.3 mph N/A Rain Light Rain
5:14 PM 35.8 °F 28.8 °F 30.0 °F 80% 30.02 in 7.0 mi NNW 9.2 mph 18.4 mph N/A Rain Light Rain
5:35 PM 35.8 °F 30.9 °F 29.7 °F 78% 30.02 in 10.0 mi NNW 5.8 mph - N/A   Overcast
5:55 PM 35.8 °F 30.1 °F 28.9 °F 76% 30.02 in 4.0 mi NW 6.9 mph - N/A Snow Light Snow
6:14 PM 34.7 °F 30.6 °F 30.0 °F 83% 30.03 in 4.0 mi North 4.6 mph - N/A Rain Light Rain
6:35 PM 34.7 °F 29.6 °F 29.5 °F 81% 30.03 in 10.0 mi NNW 5.8 mph - N/A   Overcast
6:55 PM 35.8 °F 30.1 °F 29.3 °F 77% 30.04 in 10.0 mi North 6.9 mph - N/A   Overcast
7:14 PM 35.8 °F 28.8 °F 29.3 °F 77% 30.04 in 10.0 mi NNW 9.2 mph - N/A   Overcast
7:35 PM 35.8 °F 31.9 °F 29.3 °F 77% 30.05 in 10.0 mi NNW 4.6 mph - N/A   Overcast
7:55 PM 35.8 °F 29.4 °F 27.5 °F 72% 30.06 in 10.0 mi North 8.1 mph - N/A   Overcast
8:14 PM 35.8 °F 30.1 °F 27.3 °F 71% 30.06 in 10.0 mi NNW 6.9 mph - N/A   Overcast
8:35 PM 35.8 °F 28.8 °F 27.0 °F 70% 30.06 in 10.0 mi North 9.2 mph - N/A   Overcast
8:55 PM 35.8 °F 30.1 °F 26.6 °F 69% 30.07 in 10.0 mi NW 6.9 mph - N/A   Overcast
9:14 PM 35.8 °F 31.9 °F 26.6 °F 69% 30.07 in 10.0 mi NNW 4.6 mph - N/A   Overcast
9:35 PM 35.8 °F 30.9 °F 26.8 °F 70% 30.07 in 10.0 mi North 5.8 mph - N/A   Overcast
9:55 PM 35.8 °F 31.9 °F 28.4 °F 75% 30.08 in 10.0 mi North 4.6 mph - N/A   Overcast
10:15 PM 34.7 °F - 28.9 °F 79% 30.08 in 7.0 mi Calm Calm - N/A Snow Light Snow
10:35 PM 34.0 °F 31.0 °F 28.4 °F 80% 30.08 in 10.0 mi NNW 3.5 mph - N/A   Overcast
10:54 PM 33.4 °F 28.1 °F 27.9 °F 80% 30.09 in 10.0 mi North 5.8 mph - N/A   Overcast
11:35 PM 33.3 °F - 27.7 °F 80% 30.09 in 10.0 mi Calm Calm - N/A   Mostly Cloudy
11:55 PM 33.3 °F - 27.5 °F 79% 30.09 in 7.0 mi Calm Calm - N/A Snow Light Snow